Theta_e
312 315 314 313 313 313 313 313 312 311 308 309 309 308 307 305 304 304 304 304 305 304 303 301 301 301 302 302 301 301 299 297 295 295 295 294 294 294 293 293 293 292 292 292
315 316 314 311 312 312 313 313 311 308 308 308 309 309 309 306 305 305 305 305 305 304 303 302 301 301 303 302 301 300 298 296 295 295 294 294 294 293 293 292 292 292 292 292
316 313 312 311 312 312 313 313 311 310 308 308 309 310 310 308 306 305 304 305 305 305 303 302 301 301 303 302 301 299 297 295 295 294 294 294 294 293 292 291 292 292 292 291
313 310 311 312 311 311 312 309 309 309 310 312 308 313 310 310 308 306 305 305 305 304 303 301 301 302 303 302 300 298 297 295 295 294 294 294 293 292 291 291 291 291 291 291
313 311 311 312 311 310 311 310 310 310 311 311 310 311 313 309 310 309 307 306 305 305 303 301 301 302 302 301 300 298 296 295 295 294 294 293 292 292 291 291 291 291 291 290
311 309 311 311 310 310 309 310 311 311 312 318 313 311 319 311 311 311 308 307 306 304 303 301 301 303 303 301 299 298 296 295 295 294 293 293 292 291 290 290 290 290 290 289
310 310 310 310 311 310 311 313 319 319 320 322 311 311 315 312 310 309 309 307 306 304 302 302 302 304 303 301 299 297 295 295 294 294 293 293 291 290 290 290 290 290 289 288
314 312 311 310 312 312 312 313 319 319 317 316 311 315 319 312 308 307 306 307 305 304 302 302 303 304 303 300 298 296 295 295 294 293 293 292 291 290 289 289 290 289 288 288
323 312 308 309 310 312 312 312 312 313 310 314 316 315 313 310 308 306 306 306 305 303 302 302 303 304 302 299 297 294 295 294 294 293 293 292 291 290 289 289 289 289 288 287
319 316 309 309 309 310 313 312 314 314 320 321 316 310 317 311 311 307 306 305 304 303 303 303 303 303 301 298 296 295 295 294 294 293 292 291 290 289 289 289 289 288 287 287
311 316 310 309 311 317 313 314 311 315 316 332 322 329 316 314 313 312 306 305 304 303 303 303 303 302 299 297 295 295 294 294 293 293 292 291 290 289 289 288 288 288 287 286
310 313 312 311 309 309 312 316 316 320 316 309 313 327 305 310 310 308 306 305 304 303 303 303 303 301 298 297 295 295 294 294 293 292 291 291 290 289 288 288 288 287 287 286
310 314 313 310 309 308 310 311 309 306 313 312 322 331 303 307 308 308 307 305 303 303 304 304 302 299 298 296 295 295 294 293 292 291 291 290 289 288 288 288 288 287 287 286
309 311 316 316 313 313 312 311 308 310 322 317 316 321 315 310 311 307 306 305 304 304 304 303 301 299 298 296 295 294 293 293 292 291 291 290 289 288 287 287 287 287 286 285
311 314 309 309 308 309 309 310 309 310 312 318 317 311 316 311 309 308 307 305 304 305 304 303 302 299 298 296 295 293 293 292 291 291 290 289 288 287 287 287 287 287 286 285
310 312 311 311 310 309 308 309 309 309 309 311 308 310 305 305 305 308 306 305 305 305 304 303 301 299 297 295 294 293 292 291 291 290 289 288 287 287 287 287 287 286 286 286
311 312 312 312 309 310 313 312 310 309 308 310 311 313 307 306 305 305 307 306 305 305 304 303 301 298 296 295 293 293 292 291 290 289 288 287 287 287 286 286 286 286 286 286
311 312 311 310 309 314 313 308 310 310 310 309 309 310 308 307 307 305 306 307 306 305 304 302 300 298 296 294 293 292 292 291 289 288 287 286 286 286 286 286 286 286 285 285
310 310 310 312 311 311 310 307 308 310 311 310 310 309 306 306 307 307 306 306 305 305 304 302 299 297 295 294 293 292 292 291 289 287 286 286 286 286 286 286 286 285 285 285
307 309 311 310 310 310 310 307 307 308 312 309 310 309 307 307 309 310 307 305 305 304 303 300 298 296 294 293 293 292 292 291 288 287 286 286 285 285 285 285 285 285 284 284
309 309 316 311 317 311 309 307 307 311 315 308 308 309 307 309 309 309 307 305 304 303 300 299 296 295 294 293 293 292 292 290 287 287 286 286 285 285 285 285 284 284 285 285
310 311 310 310 311 316 306 307 309 313 309 307 308 309 308 308 307 307 306 305 303 301 299 297 296 295 294 293 293 293 292 290 287 287 286 286 285 285 285 285 285 284 285 285
312 312 314 312 315 310 306 310 308 307 308 308 308 307 308 307 306 306 305 303 301 300 299 297 296 295 294 293 293 293 291 290 287 287 287 286 286 285 285 285 284 285 284 284
308 307 310 309 311 308 306 306 306 307 307 307 306 307 307 307 306 305 304 302 301 300 298 297 296 295 294 293 293 292 291 290 288 287 287 287 286 287 285 284 284 283 283 283
309 307 309 309 309 308 307 307 307 306 306 305 305 306 306 307 306 305 303 302 301 299 298 297 296 295 294 294 293 292 291 290 288 287 286 286 286 286 286 284 283 283 283 282
307 310 311 315 313 312 311 309 309 307 306 306 306 305 306 306 306 305 303 302 301 299 299 297 296 296 295 294 294 292 291 290 289 287 287 287 286 285 285 285 284 283 283 283
Wind_Speed
4 4 13 15 1 1 11 8 10 6 5 9 9 8 13 16 15 14 12 10 8 5 3 4 5 4 7 10 8 11 14 19 19 19 21 21 21 22 21 22 23 23 24 24
4 3 14 8 7 9 8 13 10 5 8 7 8 10 11 16 18 16 13 12 9 7 5 4 4 4 7 8 8 10 15 17 18 19 18 20 20 21 21 22 22 23 23 23
2 7 14 5 6 6 9 8 12 5 9 4 5 12 15 16 17 15 16 13 11 9 6 5 4 3 6 6 7 10 15 17 17 19 18 19 20 21 23 23 23 23 23 22
5 5 10 10 2 4 7 2 7 8 8 2 3 3 8 16 17 21 18 16 14 10 7 5 4 3 5 4 7 10 15 15 16 17 18 20 23 25 24 23 23 23 22 22
5 8 9 10 2 3 4 9 5 6 3 3 6 4 2 6 17 18 21 18 15 12 8 6 5 2 3 3 6 11 14 15 15 16 17 20 23 23 23 23 23 22 21 21
9 7 3 4 5 1 15 11 8 4 2 3 4 4 5 7 10 12 18 18 16 13 9 7 5 2 1 3 8 11 14 13 15 16 17 20 23 24 24 25 23 23 21 22
9 5 6 11 12 12 6 11 1 3 3 2 2 5 7 3 5 3 9 15 17 13 9 7 4 2 1 2 7 13 13 13 14 16 17 19 22 23 22 23 23 23 23 24
9 5 10 5 6 6 12 7 2 2 2 2 3 6 1 2 2 3 5 11 15 14 10 8 5 1 0 3 8 12 11 12 14 15 16 18 21 22 20 21 22 22 22 23
5 4 3 1 3 4 7 7 2 2 1 3 3 5 9 7 4 6 9 14 16 12 10 7 4 1 1 2 9 12 9 11 13 14 15 18 20 21 20 20 21 21 22 22
7 6 3 5 4 5 4 8 4 4 3 3 4 5 4 7 10 10 13 16 13 10 9 6 3 2 2 5 9 9 8 11 12 13 14 17 19 20 19 19 21 21 21 22
9 5 7 6 10 7 5 3 4 3 2 2 2 2 1 4 9 11 16 15 12 9 7 6 3 4 4 3 6 6 8 10 12 13 14 17 19 19 18 19 20 21 21 22
4 5 5 13 3 4 8 7 5 3 4 0 2 5 0 4 5 13 16 15 11 8 7 5 6 6 4 0 3 5 8 10 12 13 14 16 18 18 18 19 20 21 20 21
10 6 6 6 5 6 9 13 6 4 0 6 4 3 2 3 6 9 15 15 12 9 7 7 8 8 5 1 2 4 7 10 11 12 13 15 17 17 17 18 19 20 20 21
11 4 4 5 4 9 7 16 15 11 4 6 6 4 3 5 7 10 14 15 13 10 9 9 9 8 6 2 1 5 7 9 11 12 13 15 16 16 16 17 17 19 19 21
4 4 5 4 6 6 6 14 19 18 16 8 1 8 3 8 13 14 15 16 15 12 10 11 11 9 7 3 2 5 6 9 11 11 13 15 15 15 15 16 17 18 19 20
4 4 6 6 5 7 8 12 18 22 21 17 15 18 16 19 7 14 15 16 16 13 11 12 12 11 8 4 3 4 6 9 10 11 13 14 14 14 16 16 16 16 17 19
10 7 6 3 4 5 9 18 20 18 13 23 15 8 7 7 14 19 16 15 14 13 12 14 13 12 8 5 2 3 5 8 9 11 12 14 15 15 15 15 15 16 17 17
11 9 3 3 5 5 2 1 13 22 13 20 16 10 11 9 6 12 14 14 14 13 15 15 15 13 10 5 4 4 5 7 9 11 12 14 15 15 15 15 15 16 16 16
6 6 4 3 7 9 9 6 6 11 10 24 25 17 13 10 10 9 12 13 15 15 15 16 15 13 10 7 5 4 5 6 8 10 12 14 15 15 16 16 15 15 15 16
7 2 2 3 4 4 3 4 6 8 5 3 17 19 21 17 9 6 18 17 16 17 17 18 16 14 10 7 5 5 5 5 8 10 12 13 14 15 15 16 14 14 14 14
7 4 5 4 4 6 3 9 12 5 3 5 6 19 26 18 6 10 20 19 18 19 21 18 15 13 11 8 6 5 5 5 8 10 11 12 13 14 14 15 14 14 14 14
8 9 5 5 4 7 11 10 5 3 3 4 5 15 21 18 10 14 21 22 22 23 21 17 16 14 11 8 7 6 4 5 7 8 9 10 12 13 12 14 13 14 14 14
6 5 5 8 4 1 21 3 12 2 2 3 7 11 18 19 15 21 22 23 24 23 20 18 16 13 11 9 7 6 2 4 6 7 7 7 10 12 12 12 13 14 14 14
6 8 3 2 4 15 11 17 10 12 2 2 4 12 16 19 20 21 23 24 24 22 20 18 16 13 12 8 6 4 2 3 4 5 5 6 7 8 10 11 12 14 16 15
2 14 7 5 12 10 14 19 19 17 11 6 7 11 16 19 23 23 25 25 23 22 20 19 16 14 12 8 7 5 4 3 4 4 4 5 6 6 6 10 13 13 16 17
11 7 6 4 7 3 1 2 12 21 21 17 11 13 16 21 22 23 24 24 24 24 22 19 18 16 13 11 10 8 6 5 5 5 5 4 4 5 5 5 8 12 13 14
Wind_Direction
95 174 162 162 152 70 147 155 163 148 164 214 219 212 188 191 208 220 222 227 228 236 264 294 326 327 341 342 354 355 351 353 354 352 353 349 345 345 344 343 342 344 347 345
178 144 140 113 119 125 148 147 136 128 165 230 203 229 204 199 213 220 224 227 230 233 254 291 307 309 336 347 357 354 356 352 354 355 351 346 344 345 342 342 345 348 346 342
314 120 154 149 137 140 157 174 166 149 167 212 242 247 217 211 218 224 232 236 230 233 255 289 277 294 338 348 351 357 355 354 352 355 348 347 349 347 345 347 348 348 343 343
88 128 181 199 196 228 177 154 142 142 188 248 227 306 205 209 215 221 225 223 222 222 239 270 252 285 335 343 356 359 353 351 351 353 352 353 352 349 348 348 346 346 342 343
117 155 161 182 227 208 120 148 140 147 186 279 189 248 178 212 215 217 218 214 213 214 228 247 234 283 322 360 1 356 351 348 349 353 354 355 352 351 349 350 348 345 345 345
120 126 111 112 104 185 135 132 124 154 241 251 215 228 262 183 221 210 208 205 205 207 218 224 224 267 312 10 358 348 352 343 347 351 351 353 354 354 353 352 350 349 347 344
148 125 110 149 109 143 184 174 149 225 210 246 156 234 268 193 153 129 192 197 198 202 211 214 221 265 331 10 350 350 344 343 345 348 350 353 355 355 355 353 350 347 347 348
174 178 174 161 211 183 195 218 234 256 223 91 182 236 118 93 139 219 190 189 191 195 205 207 206 252 11 7 340 346 345 343 347 347 351 353 356 356 355 354 352 347 348 352
139 124 134 101 155 194 174 216 56 129 67 262 226 281 255 194 164 165 171 174 185 193 200 198 197 137 104 337 335 341 348 346 350 351 353 355 355 357 357 357 355 353 351 355
182 114 169 149 158 73 254 130 182 210 202 230 240 257 243 195 193 181 177 184 182 190 192 192 178 156 155 313 334 350 352 353 353 355 356 356 356 358 360 360 360 360 358 358
147 121 152 176 207 161 158 173 37 97 325 266 277 242 135 133 184 185 188 188 186 190 191 186 163 162 167 311 343 354 356 358 360 1 359 358 359 0 3 4 4 4 2 2
133 119 149 191 103 253 224 181 173 212 183 66 340 272 275 130 165 194 197 191 188 190 186 174 171 168 167 181 349 357 2 5 4 4 1 359 1 4 6 8 6 6 7 5
174 147 131 165 190 188 218 195 148 95 341 202 190 260 159 196 212 201 193 189 188 189 181 169 165 175 171 164 2 14 11 9 8 6 3 1 4 8 10 10 9 8 9 9
155 162 195 197 113 145 192 200 190 190 196 162 230 293 219 231 220 199 195 188 191 195 185 175 177 184 174 156 39 21 18 13 12 9 5 4 7 11 13 12 12 10 10 12
204 148 172 120 132 171 195 197 202 208 212 217 165 216 196 219 218 203 194 187 196 200 193 187 185 184 173 153 68 27 24 14 16 12 9 9 11 14 15 14 14 13 12 12
184 134 166 187 179 209 227 214 209 218 224 233 258 270 219 239 223 198 195 191 203 207 202 189 184 177 170 151 102 36 32 17 22 16 13 13 15 16 18 16 13 14 15 14
167 151 171 187 193 223 261 229 211 209 216 222 225 224 180 181 212 208 195 197 206 206 191 179 177 170 163 149 81 83 39 29 28 23 18 18 20 18 17 16 15 15 14 16
159 164 175 139 168 232 101 97 208 219 221 215 231 215 202 223 185 176 190 197 195 183 170 168 166 161 154 148 117 69 54 38 33 30 28 26 25 22 18 17 19 18 15 15
176 151 145 186 221 302 246 188 182 183 246 222 228 222 205 176 162 169 181 184 181 172 163 161 159 155 150 144 118 103 70 53 41 38 37 33 31 28 24 19 20 19 18 17
128 133 177 180 248 242 84 145 178 191 267 31 217 208 194 174 195 176 178 172 165 159 156 155 153 149 148 145 123 114 96 69 47 47 45 39 35 32 28 23 22 21 22 22
156 175 195 194 257 283 171 144 163 209 53 349 216 192 188 190 172 128 164 162 160 157 153 152 150 147 150 144 128 114 105 62 48 52 51 45 38 36 29 27 27 27 26 27
160 166 184 194 214 268 157 142 215 33 28 14 160 174 180 180 159 147 159 157 157 153 153 152 149 148 150 146 134 122 115 43 53 58 54 47 40 37 31 29 30 29 28 31
193 196 187 206 213 151 188 185 200 78 55 78 138 161 171 173 163 158 159 159 157 155 154 155 153 151 153 149 142 139 79 50 58 65 56 45 39 37 34 33 33 31 29 31
215 190 232 210 206 228 217 227 230 225 260 140 142 165 168 167 162 159 160 158 156 157 158 160 157 156 157 161 162 166 112 69 80 90 70 57 48 47 37 35 36 35 36 35
146 162 201 256 273 243 248 232 227 223 211 189 172 168 170 169 170 167 165 162 161 160 162 164 160 157 163 171 181 185 171 137 129 122 96 71 63 59 48 44 45 41 38 37
189 168 184 214 216 269 292 190 221 215 207 205 190 173 174 177 173 172 170 167 165 166 167 168 167 169 175 183 190 189 182 166 153 143 132 111 89 72 69 54 34 43 41 39